TimeEDT,TemperatureF,Dew PointF,Humidity,Sea Level PressureIn,VisibilityMPH,Wind Direction,Wind SpeedMPH,Gust SpeedMPH,PrecipitationIn,Events,Conditions,WindDirDegrees,DateUTC
4:56 AM,35.6,35.6,100,30.14,10.0,Calm,Calm,-,N/A,,Clear,350,2013-05-27 08:56:00
5:06 AM,35.6,33.8,93,30.15,2.5,Calm,Calm,-,N/A,,Clear,30,2013-05-27 09:06:00
5:08 AM,33.8,33.8,100,30.15,1.8,Calm,Calm,-,N/A,,Clear,20,2013-05-27 09:08:00
5:09 AM,33.8,33.8,100,30.15,2.0,Calm,Calm,-,N/A,,Clear,360,2013-05-27 09:09:00
5:10 AM,33.8,32.0,93,30.15,2.0,Calm,Calm,-,N/A,,Clear,360,2013-05-27 09:10:00
5:19 AM,33.8,33.8,100,30.15,8.0,NNE,1.2,-,N/A,,Clear,30,2013-05-27 09:19:00
5:58 AM,33.8,33.8,100,30.17,10.0,Variable,1.2,-,N/A,,Clear,0,2013-05-27 09:58:00
6:58 AM,41.0,41.0,100,30.18,10.0,Calm,Calm,-,N/A,,Clear,0,2013-05-27 10:58:00
7:58 AM,49.6,43.9,81,30.19,10.0,Variable,1.2,-,N/A,,Clear,0,2013-05-27 11:58:00
8:58 AM,57.4,40.6,54,30.19,10.0,WNW,9.2,-,N/A,,Clear,290,2013-05-27 12:58:00
9:58 AM,62.1,39.2,43,30.18,10.0,West,11.5,-,N/A,,Clear,270,2013-05-27 13:58:00
10:56 AM,64.4,35.6,34,30.16,10.0,WNW,17.3,24.2,N/A,,Clear,300,2013-05-27 14:56:00
11:58 AM,66.9,34.7,30,30.17,10.0,WNW,16.1,25.3,N/A,,Clear,300,2013-05-27 15:58:00
12:16 PM,68.0,33.8,28,30.14,10.0,West,15.0,24.2,N/A,,Clear,270,2013-05-27 16:16:00
12:28 PM,68.0,33.8,28,30.14,10.0,NW,12.7,23.0,N/A,,Clear,320,2013-05-27 16:28:00
12:31 PM,68.0,35.6,30,30.13,10.0,West,15.0,23.0,N/A,,Clear,270,2013-05-27 16:31:00
12:58 PM,68.4,35.8,30,30.15,10.0,West,15.0,23.0,N/A,,Clear,270,2013-05-27 16:58:00
1:58 PM,69.8,35.4,28,30.14,10.0,NW,15.0,-,N/A,,Clear,310,2013-05-27 17:58:00
2:51 PM,71.6,35.6,27,30.10,10.0,WNW,12.7,18.4,N/A,,Clear,300,2013-05-27 18:51:00
2:58 PM,71.2,34.7,26,30.12,10.0,WNW,16.1,-,N/A,,Clear,290,2013-05-27 18:58:00
3:58 PM,72.0,33.3,24,30.11,10.0,WNW,13.8,19.6,N/A,,Clear,290,2013-05-27 19:58:00
4:58 PM,72.3,31.8,22,30.11,10.0,WNW,12.7,-,N/A,,Clear,290,2013-05-27 20:58:00
5:58 PM,71.4,32.4,24,30.11,10.0,WNW,11.5,-,N/A,,Clear,290,2013-05-27 21:58:00
6:58 PM,69.8,35.1,28,30.12,10.0,WNW,9.2,-,N/A,,Clear,300,2013-05-27 22:58:00
7:57 PM,64.4,37.4,37,30.11,10.0,NW,5.8,-,N/A,,Light Drizzle,310,2013-05-27 23:57:00
7:58 PM,63.9,37.4,38,30.13,10.0,NW,5.8,-,N/A,,Clear,310,2013-05-27 23:58:00
8:03 PM,64.4,37.4,37,30.11,10.0,NW,4.6,-,N/A,Rain,Light Rain,310,2013-05-28 00:03:00
8:06 PM,64.4,37.4,37,30.11,10.0,NW,3.5,-,N/A,,Clear,310,2013-05-28 00:06:00
8:58 PM,57.7,40.3,52,30.14,10.0,Calm,Calm,-,N/A,,Clear,0,2013-05-28 00:58:00
9:58 PM,46.8,43.9,90,30.16,10.0,Calm,Calm,-,0.00,,Clear,0,2013-05-28 01:58:00
10:58 PM,45.7,43.9,93,30.15,10.0,NNE,1.2,-,N/A,,Clear,20,2013-05-28 02:58:00
11:58 PM,45.7,43.2,91,30.20,10.0,Variable,2.3,-,N/A,,Clear,0,2013-05-28 03:58:00